Weather Roundup
Issued by NWS Chicago, IL

Home | Current Version | Previous Version | Graphics & Text | Print | Product List | Glossary On
Versions: 1 2 3 4 5 6 7 8 9 10 11 12 13 14 15 16 17 18 19 20 21 22 23 24 25 26 27 28 29 30 31 32 33 34 35 36 37 38 39 40 41 42 43 44 45 46 47 48 49 50
000
NZUS59 KLOT 240912
HRRLOT

CHICAGO AREA WEATHER ROUNDUP
NATIONAL WEATHER SERVICE CHICAGO/ROMEOVILLE IL
400 AM CDT SUN MAY 24 2015

NOTE: "FAIR" INDICATES FEW OR NO CLOUDS BELOW 12,000 FEET WITH NO
SIGNIFICANT WEATHER AND/OR OBSTRUCTIONS TO VISIBILITY.

* THESE STATIONS ARE NOT UNDER NWS QUALITY CONTROL. THEY ALSO MAY NOT
  REPORT WEATHER SUCH AS PRECIPITATION OR FOG.

ILZ005-006-012>014-019>023-241000-
NORTHEAST ILLINOIS

CITY           SKY/WX    TMP DP  RH WIND       PRES   REMARKS
OHARE          MOCLDY    61  48  62 SE3       30.19S
MIDWAY         CLOUDY    67  47  48 S3        30.19S
AURORA         CLOUDY    61  48  62 CALM      30.19S
LANSING*       CLOUDY    61  45  55 CALM      30.20F
JOLIET*        CLOUDY    61  51  69 SE3       30.19F
WAUKEGAN       PTCLDY    59  46  62 VRB3      30.20R
DUPAGE AIRPORT CLOUDY    60  50  69 CALM      30.19S
WHEELING       MOCLDY    58  48  69 CALM      30.21S
KANKAKEE*      CLOUDY    60  51  72 E5        30.20S
MORRIS*        CLOUDY    64  49  57 CALM      30.17R
LEWIS AIRPORT* CLOUDY    61  47  60 SE5       30.19F
NORTHERLY IS     N/A     67  45  45 S3          N/A
$$

WIZ051-052-058>065-066-070>072-241000-
SOUTHEAST WISCONSIN

CITY           SKY/WX    TMP DP  RH WIND       PRES   REMARKS
MILWAUKEE      PTCLDY    60  43  53 SW8       30.20R
KENOSHA*       PTCLDY    54  45  71 SW3       30.20R
RACINE*        PTCLDY    61  45  55 SW8       30.22R
BURLINGTON     PTCLDY    49  46  89 CALM      30.20S
WAUKESHA       CLOUDY    59  41  51 S3        30.21R
WEST BEND      PTCLDY    48  43  81 CALM      30.20R
$$

INZ001>003-010>013-019-020-241000-
NORTHWEST INDIANA

CITY           SKY/WX    TMP DP  RH WIND       PRES   REMARKS
GARY*          MOCLDY    64  47  55 SE3       30.20F
MICHIGAN CITY* NOT AVBL
RENSSELAER*    NOT AVBL
VALPARAISO     PTCLDY    56  49  77 NE5       30.22S
$$

LMZ740>746-241000-
SOUTHERN LAKE MICHIGAN

STATION/POSITION TIME  SKY/WX   TEMP WIND        PRES    VSBY
                                AIR  DIR/SP/G
                 (UTC)          (F)  (DEG/KT/KT) (MB)    (MI)
HARRISON CRIB    0800            67  190/  8/  9   N/A
BURNHAM HARBOR   0900            66  170/  3/  7   N/A
CALUMET HARBOR   0800            65  190/  5/  6   N/A
BURNS HARBOR     0800            65  180/  5/  8 1023.0S
MICHIGAN CITY    0800            66  150/ 10/ 13   N/A
$$

ABBREVIATIONS USED IN REMARKS
   TC - TEMPERATURE IN CELSIUS
  WCI - WIND CHILL INDEX
   HX - HEAT INDEX
  VSB - VISIBILITY
$$


USA.gov is the U.S. government's official web portal to all federal, state and local government web resources and services.